,

(GMT )
Al Udeid

Weather History for KQIR - February, 2013

Change the Weather History Date:

Monday, February 11, 2013

  Actual Average Record
Temperature  
Mean Temperature 70 °F -  
Max Temperature 82 °F - - ()
Min Temperature 58 °F - - ()
Cooling Degree Days 5    
Growing Degree Days 20 (Base 50)    
Moisture  
Dew Point 48 °F    
Average Humidity 49    
Maximum Humidity 70    
Minimum Humidity 17    
Precipitation  
Precipitation 0.00 in - - ()
Sea Level Pressure  
Sea Level Pressure 29.93 in    
Wind  
Wind Speed 6 mph ()    
Max Wind Speed 15 mph    
Max Gust Speed -    
Visibility 6.2 miles    
Events      
Averages and records for this station are not official NWS values.
T = Trace of Precipitation, MM = Missing Value Source: Averaged Metar Reports

Daily Weather History Graph

Daily Weather History Graph

Search for Another Location

Airport or City:

Trip Planner

Search our weather history database for the weather conditions in past years. The results will help you decide how hot, cold, wet, or windy it might be!

Date:

Astronomy

Feb. 11, 2013 Rise Set
Actual Time 6:12 AM +03 5:26 PM +03
Civil Twilight 5:48 AM +03 5:49 PM +03
Nautical Twilight 5:21 AM +03 6:16 PM +03
Astronomical Twilight 4:54 AM +03 6:43 PM +03
Moon 6:35 AM +03 (2/11) 6:41 PM +03 (2/11)
Length of Visible Light 12h 01m
Length of Day
11h 14m
New Moon, 1% of the Moon is Illuminated
Feb 11
New Moon
Feb 17
First Quarter
Feb 25
Full
Mar 5
Last Quarter
Mar 11
New

Hourly Weather History & Observations

Time (+03) Temp. Dew Point Humidity Pressure Visibility Wind Dir Wind Speed Gust Speed Precip Events Conditions
12:55 AM 63.7 °F 50.7 °F 63% 29.96 in 6.2 mi Calm Calm - N/A   Clear
1:55 AM 62.8 °F 52.9 °F 70% 29.94 in 6.2 mi SE 3.5 mph - N/A   Clear
2:55 AM 59.4 °F 48.2 °F 67% 29.94 in 6.2 mi South 3.5 mph - N/A   Clear
3:55 AM 58.6 °F 47.8 °F 67% 29.93 in 6.2 mi Calm Calm - N/A   Clear
4:55 AM 60.3 °F 47.7 °F 63% 29.95 in 6.2 mi NNE 6.9 mph - N/A   Clear
5:55 AM 61.5 °F 49.3 °F 64% 29.96 in 6.2 mi Calm Calm - N/A   Clear
6:55 AM 60.1 °F 49.6 °F 68% 29.97 in 6.2 mi East 5.8 mph - N/A   Clear
7:55 AM 66.4 °F 53.8 °F 64% 29.99 in 6.2 mi SE 5.8 mph - N/A   Clear
8:55 AM 71.4 °F 50.7 °F 48% 30.00 in 6.2 mi SSE 9.2 mph - N/A   Clear
9:55 AM 76.1 °F 42.8 °F 30% 30.00 in 6.2 mi SE 8.1 mph - N/A   Clear
10:55 AM 80.6 °F 42.3 °F 26% 29.96 in 6.2 mi SE 11.5 mph - N/A   Clear
11:55 AM 81.3 °F 38.3 °F 21% 29.94 in 6.2 mi SE 12.7 mph - N/A   Partly Cloudy
12:55 PM 81.9 °F 36.0 °F 19% 29.91 in 6.2 mi SSE 15.0 mph - N/A   Clear
1:55 PM 82.2 °F 33.8 °F 17% 29.90 in 6.2 mi SSE 11.5 mph - N/A   Clear
2:55 PM 81.7 °F 38.1 °F 21% 29.89 in 6.2 mi SE 10.4 mph - N/A   Clear
3:55 PM 81.3 °F 39.6 °F 23% 29.89 in 6.2 mi ESE 10.4 mph - N/A   Clear
4:55 PM 77.4 °F 43.0 °F 29% 29.90 in 6.2 mi East 10.4 mph - N/A   Clear
5:55 PM 72.7 °F 55.2 °F 54% 29.90 in 6.2 mi East 10.4 mph - N/A   Clear
6:55 PM 70.0 °F 52.2 °F 53% 29.91 in 6.2 mi East 10.4 mph - N/A   Clear
7:55 PM 69.3 °F 55.0 °F 60% 29.91 in 6.2 mi East 11.5 mph - N/A   Clear
8:55 PM 69.1 °F 56.7 °F 65% 29.91 in 6.2 mi East 9.2 mph - N/A   Clear
9:55 PM 69.3 °F 56.3 °F 63% 29.91 in 6.2 mi ESE 11.5 mph - N/A   Clear
10:55 PM 67.3 °F 54.0 °F 62% 29.90 in 6.2 mi SE 9.2 mph - N/A   Clear
11:55 PM 64.8 °F 54.0 °F 68% 29.90 in 6.2 mi SSE 5.8 mph - N/A   Clear